Regional Weather Roundup
Issued by NWS Green Bay, WI

Home | Current Version | Previous Version | Text Only | Print | Product List | Glossary On
Versions: 1 2 3 4 5 6 7 8 9 10 11 12 13 14 15 16 17 18 19 20 21 22 23 24 25 26 27 28 29 30 31 32 33 34 35 36 37 38 39 40 41 42 43 44 45 46 47 48 49 50
000
ASUS43 KGRB 010210
RWRGRB

NORTH-CENTRAL AND NORTHEAST WISCONSIN REGIONAL WEATHER ROUNDUP
NATIONAL WEATHER SERVICE GREEN BAY WI
800 PM CST SAT FEB 28 2015

WIZ005-009-010>012-018-019-010300-
NORTH CENTRAL WISCONSIN

CITY           SKY/WX    TMP DP  RH WIND       PRES   REMARKS
IRONWOOD       CLEAR     14  -2  48 S12       30.27S WCI   0
MANITOWISH WTR CLOUDY    10  -5  50 S9        30.29F WCI  -2
ARBOR VITAE    CLEAR     11  -2  54 CALM      30.31F
EAGLE RIVER    CLEAR     10  -7  45 CALM      30.30F
LAND O LAKES   PTCLDY    12  -5  47 S6        30.30F WCI   2
RHINELANDER    MOCLDY     9  -6  50 S6        30.32F WCI  -1
PHILLIPS       CLOUDY     9  -5  53 S5        30.31F WCI   1
ANTIGO         CLOUDY     8  -3  59 S9        30.36F WCI  -5
TOMAHAWK       CLOUDY    10  -5  51 CALM      30.34F
MERRILL        CLOUDY    13  -3  47 S8        30.36F WCI   2
$$

WIZ013-073-010300-
NORTHEAST WISCONSIN

CITY           SKY/WX    TMP DP  RH WIND       PRES   REMARKS
IRON MOUNTAIN  CLEAR     13  -3  49 S8        30.36F WCI   2
MARINETTE      CLEAR     14   0  52 SW9       30.45F WCI   2
OCONTO         CLEAR     14  -1  52 SW5       30.47F WCI   6
$$

WIZ017-030-035>037-045-010300-
CENTRAL WISCONSIN

CITY           SKY/WX    TMP DP  RH WIND       PRES   REMARKS
MEDFORD        CLOUDY    11  -4  51 S6        30.34F WCI   1
WAUSAU         CLOUDY    13  -4  46 S7        30.37F WCI   3
MOSINEE        CLOUDY    12  -2  52 S8        30.39F WCI   1
MARSHFIELD     CLOUDY    15  -1  49 S8        30.37F WCI   4
WISC RAPIDS    CLOUDY    15  -5  40 S8        30.42F WCI   4
STEVENS POINT  CLOUDY    13  -2  51 S6        30.41F WCI   4
WAUPACA        CLOUDY    16   1  52 S6        30.45F WCI   7
SHAWANO        PTCLDY    15   1  53 S3        30.45F
CLINTONVILLE   MOCLDY    14   1  57 S9        30.45F WCI   2
$$

WIZ038-039-048-051-010300-
FOX VALLEY

CITY           SKY/WX    TMP DP  RH WIND       PRES   REMARKS
NWS GREEN BAY  PTCLDY    13   1  59 S6        30.47F WCI   4
APPLETON       MOCLDY    12   0  57 SW6       30.46F WCI   3
OSHKOSH        CLOUDY    13   2  61 S8        30.47F WCI   2
FOND DU LAC    CLOUDY    15   0  51 S7        30.47F WCI   5
$$

WIZ022-050-052-010300-
EAST CENTRAL WISCONSIN

CITY           SKY/WX    TMP DP  RH WIND       PRES   REMARKS
STURGEON BAY   CLEAR     12   3  67 S8        30.48F WCI   1
MANITOWOC      MOCLDY    16   7  67 SW9       30.49F WCI   4
SHEBOYGAN      CLOUDY    15   6  67 S7        30.49F WCI   5
$$

LMZ563-521-522-541>543-010300-
LAKESHORE

STATION/POSITION TIME  TEMP    WIND        PRES    VSBY  WAVE
                       AIR SEA DIR/SP/G                  HT/PER
                 (UTC) (F)     (DEG/KT/KT) (MB)    (MI)  (FT/S)
SHEBOYGAN LKSHOR 0200   19     210/ 12/ 13 1034.3F
KEWAUNEE LKSHORE 0200   16     240/  5/  8 1031.4F
TWO RIVERS CG    0100   19                 1032.7
NORTHPORT PIER   0200   14     220/  1/  7 1031.5F
SISTER BAY LKSHO 0100   14        CALM       N/A
STURGEON BAY CG  0100   16     230/  4     1033.1      6   1
CHAMBERS ISLAND  0200   12     180/  5/ 11 1031.5F
MENOMINEE LKSHOR 0200   15     200/  8     1032.0F
$$



USA.gov is the U.S. government's official web portal to all federal, state and local government web resources and services.